Tracking 27122 objects as of 25-Mar-2023
HD Live streaming from Space Station
objects crossing your sky now

SL-16 DEB

Track SL-16 DEB now!
10-day predictions


NORAD ID: 18476
Int'l Code: 1987-041F
Perigee: 842.4 km
Apogee: 1,151.7 km
Inclination: 71.0 °
Period: 104.9 minutes
Semi major axis: 7368 km
RCS: 0.095 m2 (small)
Launch date: May 13, 1987
Source: Commonwealth of Independent States (former USSR) (CIS)
Launch site: TYURATAM MISSILE AND SPACE COMPLEX (TTMTR)

Note: This is SATELLITE DEBRIS
Your satellite tracking list
Your tracking list is empty




NASA's NSSDC Master Catalog

Two Line Element Set (TLE):
1 18476U 87041F   23083.90926829  .00000176  00000-0  20482-3 0  9990
2 18476  70.9901 319.4744 0209917 284.8211  85.7695 13.72700856795886
Source of the keplerian elements: AFSPC